カタログに戻る

M-SEL

運用中軍事SSO
NORAD 63231·PAYLOAD·🇺🇸 United States

打ち上げ Mar 15, 2025 から Vandenberg Space Force Base

Loading…

次のパス (今後24時間)

TLE

最新Source: Space-Track

元期: Sep 13, 2026, 16:19 UTC

1 63231U 25052X   26256.68004440  .00006555  00000-0  24738-3 0  9994
2 63231  97.3778 149.2598 0004490 174.0637 186.0656 15.27356276 83424

AllMySatでM-SELをリアルタイム追跡

Download on the App Store